Date String (YYYY-MM-DD hh:mm:ss) UTC,Instrument flags,absolute air pressure of the measurement (hPa),sample flow rate (lpm),inlet stack bypass flow (lpm),air temperature of the measurement (°C),ambient temperature measured by the external sensor (°C),aerosol sample conditioner tube jacket temperature (°C),OPC LED temperature (°C),internal box temperature (°C),relative humidity of the measurement (%),span deviation,mass concentration of particles derived from Lorenz-Mie calculation of OPC scattering (μg/m³),mass concentration of particles derived from Lorenz-Mie calculation of OPC scattering (μg/m³),mass concentration of particles derived from Lorenz-Mie calculation of OPC scattering (μg/m³)
DateTimeUTC,F1_M11,P_M11,Q1_M11,Q2_M11,T1_M11,T2_M11,T3_M11,T4_M11,T5_M11,U1_M11,ZSPAN_M11,X0_M11,X2_M11,X1_M11
2023-07-16 20:00:00,SystemResetWarning,0835.1,5.01,000.00,028.7,025.6,000.0,037.1,030.0,32.6,0000.6,0023.72,0015.13,0014.24
2023-07-16 20:01:00,SystemResetWarning,0835.1,5.00,000.00,028.7,026.0,000.0,037.1,030.1,32.6,0000.4,0022.96,0015.00,0014.16
2023-07-16 20:02:00,SystemResetWarning,0835.1,5.00,000.00,028.8,026.5,000.0,037.1,030.2,32.7,0000.4,0022.26,0014.92,0014.10
2023-07-16 20:03:00,SystemResetWarning,0835.1,5.00,000.00,028.8,026.8,000.0,037.1,030.3,32.8,0000.6,0022.15,0014.84,0014.04
2023-07-16 20:04:00,SystemResetWarning,0835.1,5.00,000.00,028.8,027.1,000.0,037.2,030.4,33.1,0000.6,0021.45,0014.79,0014.01
2023-07-16 20:05:00,SystemResetWarning,0835.1,5.00,000.00,028.9,027.4,000.0,037.2,030.5,32.4,0000.4,0021.15,0014.76,0013.99
2023-07-16 20:06:00,SystemResetWarning,0835.1,5.00,000.00,028.9,027.6,000.0,037.2,030.6,32.0,0000.5,0021.10,0014.73,0013.98
2023-07-16 20:07:00,SystemResetWarning,0835.2,4.99,000.00,028.9,026.4,000.0,037.1,030.5,31.3,0000.5,0021.64,0014.73,0013.96
2023-07-16 20:08:00,SystemResetWarning,0835.1,5.01,000.00,028.9,025.0,000.0,037.0,030.2,31.3,0000.5,0021.69,0014.73,0013.93
2023-07-16 20:09:00,SystemResetWarning,0835.1,5.01,000.00,028.8,024.8,000.0,036.9,030.1,32.1,0000.5,0021.47,0014.73,0013.91
2023-07-16 20:10:00,SystemResetWarning,0835.0,5.00,000.00,028.7,025.1,000.0,037.0,029.9,31.9,0000.5,0022.14,0014.72,0013.89
2023-07-16 20:11:00,SystemResetWarning,0835.1,5.00,000.00,028.7,025.5,000.0,037.0,030.0,31.4,0000.5,0022.60,0014.72,0013.90
2023-07-16 20:12:00,SystemResetWarning,0835.1,5.00,000.00,028.7,026.0,000.0,037.0,030.1,30.6,0000.6,0023.09,0014.75,0013.90
2023-07-16 20:13:00,SystemResetWarning,0835.1,5.01,000.00,028.7,026.4,000.0,037.1,030.2,30.5,0000.7,0024.08,0014.76,0013.90
2023-07-16 20:14:00,SystemResetWarning,0835.1,4.99,000.00,028.7,026.8,000.0,037.1,030.3,30.0,0000.5,0023.79,0014.77,0013.88
2023-07-16 20:15:00,SystemResetWarning,0835.1,5.01,000.00,028.8,027.1,000.0,037.1,030.4,30.1,0000.4,0023.98,0014.69,0013.82
2023-07-16 20:16:00,SystemResetWarning,0835.1,5.01,000.00,028.8,027.4,000.0,037.1,030.5,31.1,0000.4,0024.34,0014.62,0013.74
2023-07-16 20:17:00,SystemResetWarning,0835.1,4.99,000.00,028.9,027.3,000.0,037.1,030.5,34.0,0000.3,0024.30,0014.56,0013.64
2023-07-16 20:18:00,SystemResetWarning,0835.0,5.02,000.00,028.9,025.9,000.0,037.0,030.4,34.5,0000.1,0023.58,0014.44,0013.53
2023-07-16 20:19:00,SystemResetWarning,0835.0,4.98,000.00,029.0,024.9,000.0,036.9,030.2,34.3,-000.1,0024.01,0014.29,0013.41
2023-07-16 20:20:00,SystemResetWarning,0835.0,5.00,000.00,029.0,024.9,000.0,036.9,030.1,34.8,-000.3,0023.68,0014.12,0013.28
2023-07-16 20:21:00,SystemResetWarning,0835.0,5.04,000.00,029.0,025.3,000.0,037.0,030.1,34.5,-000.3,0023.25,0013.98,0013.18
2023-07-16 20:22:00,SystemResetWarning,0835.1,4.97,000.00,029.1,025.7,000.0,037.0,030.2,33.4,-000.2,0022.74,0013.89,0013.07
2023-07-16 20:23:00,SystemResetWarning,0835.1,5.01,000.00,029.1,026.2,000.0,037.1,030.3,33.7,-000.3,0022.58,0013.69,0012.92
2023-07-16 20:24:00,SystemResetWarning,0835.1,5.00,000.00,029.2,026.7,000.0,037.1,030.4,33.8,-000.3,0022.11,0013.49,0012.75
2023-07-16 20:25:00,SystemResetWarning,0835.1,5.00,000.00,029.3,027.0,000.0,037.2,030.5,33.5,-000.2,0022.86,0013.29,0012.58
2023-07-16 20:26:00,SystemResetWarning,0835.1,5.00,000.00,029.3,027.3,000.0,037.3,030.6,34.0,-000.2,0023.52,0013.13,0012.43
2023-07-16 20:27:00,SystemResetWarning,0835.1,4.98,000.00,029.4,027.4,000.0,037.3,030.7,34.3,-000.3,0022.81,0013.04,0012.34
2023-07-16 20:28:00,SystemResetWarning,0835.0,5.00,000.00,029.4,026.2,000.0,037.2,030.6,35.2,-000.2,0023.38,0013.05,0012.34
2023-07-16 20:29:00,SystemResetWarning,0835.0,5.02,000.00,029.6,025.1,000.0,037.2,030.4,34.3,0000.0,0024.60,0013.17,0012.41
2023-07-16 20:30:00,SystemResetWarning,0835.0,4.98,000.00,029.7,025.0,000.0,037.2,030.4,33.6,0000.2,0025.34,0013.33,0012.50
2023-07-16 20:31:00,SystemResetWarning,0835.0,5.02,000.00,029.7,025.3,000.0,037.3,030.3,33.4,0000.4,0027.61,0013.47,0012.59
2023-07-16 20:32:00,SystemResetWarning,0835.0,4.99,000.00,029.7,025.8,000.0,037.4,030.3,33.2,0000.5,0027.69,0013.58,0012.68
2023-07-16 20:33:00,SystemResetWarning,0835.0,5.00,000.00,029.7,026.3,000.0,037.4,030.4,31.9,0000.4,0028.00,0013.73,0012.76
2023-07-16 20:34:00,SystemResetWarning,0835.0,5.01,000.00,029.8,026.7,000.0,037.5,030.5,31.9,0000.4,0028.49,0013.93,0012.90
2023-07-16 20:35:00,SystemResetWarning,0835.0,5.00,000.00,029.8,027.0,000.0,037.6,030.6,32.5,0000.3,0029.01,0014.14,0013.03
2023-07-16 20:36:00,SystemResetWarning,0835.0,4.99,000.00,029.8,027.4,000.0,037.6,030.7,31.5,0000.3,0028.90,0014.32,0013.14
2023-07-16 20:37:00,SystemResetWarning,0835.0,5.00,000.00,029.9,027.5,000.0,037.7,030.8,31.6,0000.4,0028.14,0014.48,0013.28
2023-07-16 20:38:00,SystemResetWarning,0835.0,5.00,000.00,029.9,026.4,000.0,037.6,030.7,31.8,0000.5,0029.04,0014.62,0013.38
2023-07-16 20:39:00,SystemResetWarning,0834.9,5.00,000.00,029.9,025.1,000.0,037.5,030.5,32.4,0000.4,0028.70,0014.61,0013.41
2023-07-16 20:40:00,SystemResetWarning,0834.9,5.01,000.00,029.8,024.9,000.0,037.5,030.3,32.5,0000.2,0027.72,0014.55,0013.38
2023-07-16 20:41:00,SystemResetWarning,0834.9,5.01,000.00,029.7,025.2,000.0,037.6,030.2,31.7,0000.1,0026.87,0014.49,0013.34
2023-07-16 20:42:00,SystemResetWarning,0834.8,4.99,000.00,029.6,025.7,000.0,037.6,030.3,32.3,-000.2,0025.13,0014.48,0013.33
2023-07-16 20:43:00,SystemResetWarning,0835.3,4.99,000.00,029.6,026.2,000.0,037.7,030.4,32.8,-000.4,0024.58,0014.47,0013.29
2023-07-16 20:44:00,SystemResetWarning,0835.3,5.00,000.00,029.6,026.6,000.0,037.7,030.5,32.2,-000.4,0024.47,0014.45,0013.28
2023-07-16 20:45:00,SystemResetWarning,0835.1,5.01,000.00,029.6,027.0,000.0,037.7,030.6,32.5,-000.4,0023.99,0014.34,0013.24
2023-07-16 20:46:00,SystemResetWarning,0835.3,5.01,000.00,029.7,027.3,000.0,037.8,030.7,32.5,-000.3,0023.15,0014.27,0013.20
2023-07-16 20:47:00,SystemResetWarning,0835.1,5.00,000.00,029.7,027.2,000.0,037.7,030.8,32.6,-000.2,0022.41,0014.20,0013.17
2023-07-16 20:48:00,SystemResetWarning,0835.4,4.98,000.00,029.7,025.7,000.0,037.6,030.6,31.5,-000.4,0021.87,0014.16,0013.16
2023-07-16 20:49:00,SystemResetWarning,0835.2,5.01,000.00,029.6,024.8,000.0,037.5,030.4,31.1,-000.5,0022.45,0014.15,0013.15
2023-07-16 20:50:00,SystemResetWarning,0834.8,5.01,000.00,029.5,025.0,000.0,037.5,030.3,31.1,-000.6,0022.12,0014.12,0013.12
2023-07-16 20:51:00,SystemResetWarning,0834.8,5.00,000.00,029.4,025.3,000.0,037.5,030.2,31.1,-000.5,0022.56,0014.09,0013.08
2023-07-16 20:52:00,SystemResetWarning,0834.8,5.00,000.00,029.4,025.8,000.0,037.6,030.3,31.9,-000.4,0022.45,0014.03,0013.05
2023-07-16 20:53:00,SystemResetWarning,0834.9,4.99,000.00,029.3,026.3,000.0,037.6,030.4,32.1,-000.3,0021.88,0013.96,0012.98
2023-07-16 20:54:00,SystemResetWarning,0834.9,5.00,000.00,029.4,026.7,000.0,037.6,030.5,31.8,-000.0,0021.74,0013.87,0012.92
2023-07-16 20:55:00,SystemResetWarning,0834.8,5.01,000.00,029.4,027.1,000.0,037.6,030.6,31.0,0000.0,0021.57,0013.78,0012.87
2023-07-16 20:56:00,SystemResetWarning,0834.8,4.99,000.00,029.4,027.4,000.0,037.6,030.7,31.1,-000.1,0021.55,0013.73,0012.83
2023-07-16 20:57:00,SystemResetWarning,0834.8,4.98,000.00,029.4,027.3,000.0,037.6,030.7,30.5,-000.2,0021.35,0013.67,0012.77
2023-07-16 20:58:00,SystemResetWarning,0835.0,5.00,000.00,029.4,025.9,000.0,037.5,030.5,30.8,-000.2,0021.91,0013.62,0012.73
2023-07-16 20:59:00,SystemResetWarning,0834.7,5.01,000.00,029.3,025.0,000.0,037.4,030.3,30.0,0000.1,0021.97,0013.52,0012.64
